This is the latest recevied weather packets stored in our database for station/object N8JE-13. If no packets are shown the sender has not sent any weather packets the latest 10 day(s).
| Time | Temp. | Humidity | Pressure | Rain* | Wind** | Luminosity | Snow |
|---|---|---|---|---|---|---|---|
| 1777842652 | 15° C | 40% | 1014.7 hPa | 0 mm | - | - | - |
| 1777842351 | 15° C | 40% | 1014.7 hPa | 0 mm | - | - | - |
| 1777842052 | 15° C | 39% | 1014.7 hPa | 0 mm | - | - | - |
| 1777841752 | 15° C | 39% | 1014.7 hPa | 0 mm | - | - | - |
| 1777841452 | 15° C | 39% | 1014.8 hPa | 0 mm | - | - | - |
| 1777841151 | 15° C | 38% | 1014.9 hPa | 0 mm | - | - | - |
| 1777840851 | 15.56° C | 38% | 1015 hPa | 0 mm | - | - | - |
| 1777840552 | 15.56° C | 38% | 1015 hPa | 0 mm | - | - | - |
| 1777840252 | 15.56° C | 40% | 1015.1 hPa | 0 mm | - | - | - |
| 1777839952 | 15.56° C | 37% | 1015 hPa | 0 mm | - | - | - |
| 1777839652 | 16.11° C | 37% | 1015.1 hPa | 0 mm | - | - | - |
| 1777839350 | 16.11° C | 38% | 1015.2 hPa | 0 mm | - | - | - |
| 1777839052 | 16.11° C | 36% | 1015.1 hPa | 0 mm | - | - | - |
| 1777838752 | 16.67° C | 38% | 1015.1 hPa | 0 mm | - | - | - |
| 1777838452 | 16.11° C | 37% | 1015.2 hPa | 0 mm | - | - | - |
| 1777838152 | 16.11° C | 36% | 1015.3 hPa | 0 mm | - | - | - |
| 1777837852 | 16.11° C | 37% | 1015.2 hPa | 0 mm | - | - | - |
| 1777837551 | 16.67° C | 37% | 1015.3 hPa | 0 mm | - | - | - |
| 1777837251 | 16.67° C | 36% | 1015.4 hPa | 0 mm | - | - | - |
| 1777836951 | 16.11° C | 38% | 1015.5 hPa | 0 mm | - | - | - |
| 1777836652 | 16.67° C | 36% | 1015.6 hPa | 0 mm | - | - | - |
| 1777836352 | 16.67° C | 35% | 1015.8 hPa | 0 mm | - | - | - |
| 1777836051 | 16.67° C | 37% | 1015.9 hPa | 0 mm | - | - | - |
| 1777835751 | 16.11° C | 38% | 1015.7 hPa | 0 mm | - | - | - |
| 1777835450 | 16.11° C | 37% | 1015.9 hPa | 0 mm | - | - | - |
* Rain latest hour (hover to see other rain measurements)
** Current wind speed in m/s (hover to see current wind gust speed)